SCP
0 0 0 0 0 0 0 2 2 1 3 1 0 1 2 3 0 1 2 2 1 1 2 2 1 2 1 1 0 0 0 1 1 2 1 2 2 3 4 3 2 2 1
0 0 0 0 0 0 0 0 1 1 1 0 1 2 0 1 1 2 1 0 1 2 3 2 2 2 1 1 1 0 0 1 2 3 2 2 2 3 4 3 2 1 2
0 0 0 0 0 0 0 0 0 0 0 1 0 0 0 0 0 0 0 2 1 1 1 2 2 1 0 0 1 1 1 1 1 2 2 3 2 5 5 3 3 2 2
0 0 0 0 0 0 0 0 0 0 0 1 0 0 0 0 0 0 0 0 2 2 1 1 2 1 0 0 0 1 1 2 1 2 2 2 3 4 5 5 3 2 3
0 0 0 0 0 0 0 0 0 0 0 0 0 0 1 0 0 0 0 0 1 2 2 3 3 2 0 -0 1 0 1 2 2 1 1 3 3 4 3 3 4 3 2
0 0 0 0 0 0 0 0 0 0 0 0 0 0 0 0 0 0 0 0 0 0 0 2 3 2 2 0 1 0 3 2 2 1 -0 3 4 3 3 2 2 2 2
0 0 0 0 0 -0 0 0 0 0 0 0 0 0 0 0 0 0 0 0 0 0 0 2 7 5 1 0 -2 0 2 3 1 1 1 1 4 3 2 2 2 3 1
0 0 0 0 0 0 0 0 0 0 0 0 0 0 0 0 0 0 0 0 0 0 -0 1 1 5 7 3 4 2 2 1 1 1 3 1 4 4 2 3 4 2 1
0 0 0 0 0 0 0 0 0 0 0 0 0 0 0 0 0 0 0 0 0 0 0 0 2 1 2 1 0 0 -1 1 0 1 2 3 5 2 2 4 3 2 1
0 0 0 0 0 0 0 0 0 0 0 0 0 0 0 0 0 0 0 0 0 0 0 0 0 0 4 2 0 0 1 1 1 3 3 3 4 3 4 3 2 2 1
0 0 0 0 0 0 0 0 0 0 0 0 0 0 0 0 0 0 0 0 0 0 0 0 0 0 2 4 4 3 2 2 2 4 4 2 3 3 3 2 2 1 1
0 0 0 0 0 0 0 0 0 0 0 0 0 0 0 0 0 0 0 0 0 0 0 0 0 0 0 3 3 2 3 2 4 4 2 3 4 3 3 3 1 1 1
0 0 0 0 0 0 0 0 0 0 0 0 0 0 0 0 0 0 0 0 0 0 0 0 0 0 0 0 3 3 3 5 5 3 2 5 3 3 3 2 2 1 1
0 0 0 0 0 0 0 0 0 0 0 0 0 0 0 0 0 0 0 0 0 0 0 0 0 0 1 0 1 3 4 5 4 2 3 4 3 2 3 2 2 2 1
0 0 0 0 0 0 0 0 0 0 0 0 0 0 0 0 0 0 0 0 0 0 0 0 0 0 0 1 2 5 4 4 2 2 4 4 2 2 2 2 1 1 1
0 0 0 0 0 0 0 1 1 0 1 0 0 0 0 0 0 0 0 0 0 0 0 0 0 0 1 0 0 4 5 3 1 4 4 3 0 0 0 0 0 1 1
0 0 0 0 1 1 1 1 1 1 0 1 0 0 0 0 0 0 0 0 0 0 0 0 0 0 0 0 -0 2 3 2 2 5 4 1 1 0 0 0 0 0 0
0 0 0 0 0 0 0 0 0 0 0 1 0 0 0 0 0 0 0 -0 0 -0 0 0 0 0 0 0 -0 0 3 2 2 4 2 1 1 1 0 0 0 0 0
0 0 0 0 0 0 0 0 0 0 0 0 0 0 0 0 0 0 0 -0 0 -0 -0 0 0 0 0 -0 0 0 3 2 2 1 1 1 0 0 0 0 0 0 0
0 0 0 0 0 0 0 0 0 0 0 0 0 0 0 0 0 0 0 0 -0 -0 -0 -0 0 0 0 0 0 2 4 1 1 1 1 1 0 0 0 0 0 0 0
0 0 0 -0 -0 0 0 0 0 -0 0 0 0 0 0 0 0 0 0 0 -0 -0 -0 0 0 0 0 0 0 2 2 2 2 1 0 0 0 0 0 0 0 0 0
-0 -0 -0 -0 -0 -0 0 -0 -0 0 0 0 0 0 0 0 0 0 0 -0 -0 0 0 0 0 1 1 0 0 2 2 1 1 1 1 0 0 0 0 0 0 0 0
-0 -0 -0 -0 -0 -0 -0 -0 -0 -0 -0 -0 0 0 0 0 0 0 0 0 0 0 0 0 1 1 1 0 0 0 0 0 1 0 0 0 0 0 0 0 0 0 0
-0 -0 0 0 -0 -0 -0 -0 -0 -0 0 -0 -0 -0 -0 0 0 0 0 0 0 0 0 1 1 2 0 0 0 0 0 0 0 0 0 0 0 0 0 0 0 0 0
-0 -0 0 0 -0 -0 0 -0 -0 0 -0 -0 -0 0 0 0 0 0 0 0 0 0 0 1 2 1 0 1 0 0 0 0 0 0 0 0 0 0 0 0 0 0 0
-0 0 -0 -0 -0 -0 -0 -0 -0 0 0 0 0 0 0 0 0 0 -0 -0 0 0 1 1 1 1 0 0 0 0 0 -0 0 0 0 0 0 0 0 0 0 0 0
Wind_Speed_500mb
50 41 27 32 37 38 37 24 33 58 69 70 46 49 17 17 12 13 16 50 57 56 62 54 46 55 59 50 47 55 50 35 44 42 43 38 37 52 50 38 32 39 36
49 45 49 37 30 38 41 43 39 36 54 53 40 67 69 58 29 13 12 19 26 38 49 57 47 58 60 61 56 61 64 58 47 49 32 28 31 37 45 41 25 40 32
51 57 62 57 37 29 34 39 51 48 39 47 47 50 64 65 62 74 74 54 44 44 43 44 26 29 42 52 56 61 65 65 49 52 40 13 20 9 25 30 25 25 33
34 27 54 49 34 21 21 29 40 53 45 35 32 59 73 71 71 71 68 61 47 51 50 45 40 30 36 40 54 66 73 58 59 60 52 47 41 12 7 21 19 22 38
22 23 23 22 24 19 25 26 31 38 40 40 40 32 53 69 73 66 57 66 54 65 51 64 49 44 56 45 41 52 58 50 50 55 51 50 42 43 45 32 26 31 33
27 31 30 33 22 27 30 29 22 30 33 41 44 42 48 42 61 73 60 69 83 74 92 81 66 53 65 70 54 37 54 47 50 68 72 59 53 40 33 32 26 38 37
25 24 26 33 30 36 33 28 30 32 23 25 33 42 43 53 51 52 65 77 82 77 85 77 85 81 83 58 47 42 46 69 73 71 66 62 56 47 32 26 34 34 23
24 32 33 36 33 25 28 29 30 28 36 38 33 36 38 43 48 56 55 62 83 79 87 63 75 82 88 99 80 79 78 64 88 96 71 73 63 52 41 36 35 35 21
21 23 19 9 21 32 34 33 30 36 32 43 41 43 46 45 44 45 53 59 63 66 71 68 71 78 80 96 95 68 104 101 87 89 70 77 63 38 36 48 42 30 24
26 25 29 35 32 35 42 37 41 41 42 40 36 46 43 46 52 48 53 57 70 74 67 72 72 60 59 67 68 91 90 84 75 78 78 75 58 43 56 49 36 24 29
31 27 34 37 43 34 44 46 44 45 42 40 37 39 47 49 54 57 55 60 64 68 73 75 73 73 61 62 70 80 86 84 80 82 79 61 48 48 53 40 39 33 30
38 36 35 37 37 37 50 43 39 42 43 39 44 46 40 38 51 59 61 63 61 63 67 74 79 89 75 55 73 82 83 80 80 86 71 56 47 50 48 42 40 37 34
28 31 32 36 41 45 46 42 43 44 48 46 45 46 46 46 50 60 63 69 65 65 61 68 79 87 92 82 74 77 79 80 82 79 67 55 54 51 55 49 38 40 39
40 42 39 41 39 42 44 45 45 43 34 48 55 47 45 49 53 51 47 57 67 76 75 65 75 76 72 85 85 80 79 83 83 74 64 59 58 56 53 53 49 37 39
49 42 30 33 31 40 45 53 53 52 54 54 37 54 50 49 53 57 73 67 65 75 83 79 68 72 70 78 75 83 83 82 75 73 66 58 50 56 51 46 40 42 38
37 46 41 44 40 47 55 53 56 44 43 56 59 54 55 55 57 60 65 78 78 68 80 78 76 76 78 75 72 85 87 71 78 75 67 50 56 52 45 41 37 37 38
41 46 46 51 47 50 42 46 49 56 63 66 67 63 64 64 59 64 72 76 87 85 76 84 87 76 77 74 80 87 84 76 76 75 66 57 54 53 47 45 44 40 36
35 43 48 50 52 57 60 71 79 72 71 70 68 68 69 68 76 82 73 79 86 88 80 82 88 75 82 81 78 86 82 74 70 73 61 61 57 49 49 47 44 43 40
63 61 60 62 70 74 83 82 80 86 88 86 86 88 87 80 70 74 82 82 86 99 101 84 84 79 85 83 83 81 83 72 69 61 61 58 46 38 37 31 26 31 37
69 70 73 78 84 83 72 77 84 94 94 91 93 92 94 94 92 90 91 96 100 106 104 104 86 78 88 83 85 83 86 73 62 62 58 49 49 37 31 36 28 29 33
78 83 88 86 84 81 83 91 90 91 93 85 77 75 78 82 90 105 105 102 95 98 92 97 85 81 86 84 86 93 78 75 68 61 50 49 44 28 28 43 33 37 32
81 84 91 90 83 87 90 93 94 97 92 96 99 114 118 123 123 116 112 115 103 95 90 89 84 79 84 85 92 88 79 71 65 60 55 54 46 39 34 42 43 31 27
86 96 88 85 83 85 88 95 101 94 95 119 139 143 145 144 132 114 109 93 87 91 92 84 80 77 89 89 83 76 71 52 56 55 49 28 41 46 36 32 33 27 21
81 81 83 85 83 75 79 80 78 91 104 116 143 155 116 123 130 115 95 92 79 92 90 81 83 85 91 92 84 80 68 68 58 50 41 38 40 35 34 31 27 18 22
70 68 68 76 83 90 91 82 76 81 102 104 102 22 28 79 105 101 93 82 82 91 87 89 94 94 92 96 93 85 83 76 61 51 50 47 37 36 33 27 21 29 28
72 80 88 82 80 67 74 74 68 70 70 64 6 27 55 60 70 64 69 78 69 75 87 99 95 84 104 107 90 84 78 67 54 55 54 42 38 36 31 26 23 25 28
Wind_Direction_500mb
246 204 205 213 205 201 202 209 204 214 213 227 251 247 246 276 237 283 266 234 237 244 254 258 250 239 243 251 252 257 266 249 250 257 270 276 274 269 270 276 275 261 274
233 208 191 203 212 222 221 218 223 218 223 227 244 243 251 255 245 265 310 269 251 262 261 255 257 261 250 248 252 253 256 274 252 248 264 277 279 272 276 277 273 244 261
240 224 190 196 191 222 227 226 226 230 224 227 230 257 246 248 254 256 257 254 268 280 262 254 272 265 259 252 255 255 256 251 268 256 246 250 246 291 264 265 264 234 245
240 258 184 176 190 202 266 247 233 232 237 241 248 223 244 256 254 262 262 269 267 261 264 268 277 275 292 292 264 255 257 255 247 257 259 256 252 274 279 247 263 260 239
213 160 180 202 215 227 245 272 263 238 241 244 245 243 231 238 248 257 258 260 250 241 250 271 269 273 283 289 295 267 260 259 258 262 263 255 256 245 255 263 259 258 254
198 198 212 201 209 239 245 240 264 275 258 251 256 255 248 249 244 248 250 246 252 266 259 254 262 281 279 283 283 291 248 257 251 270 252 252 241 248 246 254 268 266 271
211 211 198 188 217 219 218 241 265 275 263 272 259 258 260 257 259 251 254 248 249 262 269 256 257 261 271 273 281 273 267 258 247 257 249 247 248 256 259 259 257 263 294
242 222 212 208 219 227 229 231 234 256 263 274 264 255 254 257 259 259 258 249 236 250 255 254 252 251 251 261 268 273 272 267 249 259 255 243 240 240 251 243 240 265 270
234 247 215 232 258 258 245 238 237 244 258 259 270 280 284 278 267 262 252 244 247 251 249 245 245 244 249 248 253 266 257 264 244 255 255 239 244 239 231 240 254 231 265
223 239 241 235 243 262 266 244 240 241 251 247 251 270 272 279 283 277 268 263 257 258 257 249 245 244 257 261 251 250 263 258 251 242 246 242 235 226 239 245 220 235 237
232 248 249 245 252 267 262 251 243 238 237 245 258 265 273 278 269 277 277 274 272 267 258 254 250 245 239 246 252 257 257 249 243 241 241 239 231 225 236 235 220 232 232
240 250 262 269 275 270 265 258 256 248 251 253 267 266 267 277 276 273 274 271 271 269 266 259 251 247 241 235 241 246 245 239 236 240 239 227 228 223 229 225 220 227 230
249 264 271 276 264 260 262 263 258 253 248 249 248 252 265 271 276 268 271 269 265 263 261 267 260 255 245 237 241 244 242 238 234 242 225 221 226 225 223 220 214 221 225
267 264 262 266 265 264 266 268 267 266 268 258 264 254 260 270 262 262 264 267 268 269 271 251 260 256 245 246 242 246 244 237 237 237 222 219 222 221 225 219 215 222 227
269 274 274 277 266 266 268 271 264 265 266 268 252 261 263 266 280 270 263 262 270 267 269 254 257 250 248 239 234 236 239 235 230 222 220 220 220 222 226 223 218 222 225
282 267 262 264 271 264 262 262 261 267 268 260 259 260 270 267 262 264 262 260 258 268 265 264 249 253 244 236 228 233 234 236 219 214 218 208 213 217 222 218 219 225 226
284 301 300 310 307 299 293 300 300 284 274 263 257 258 259 256 257 264 266 267 262 257 264 263 248 251 240 236 224 229 229 218 213 211 212 204 211 211 213 220 220 225 233
312 311 306 302 294 287 290 287 287 281 273 264 258 257 254 257 260 269 265 263 259 261 253 261 255 245 237 235 228 224 219 215 211 212 210 204 208 212 221 221 222 229 234
317 313 307 302 295 288 285 281 279 278 271 260 257 257 256 253 254 259 261 258 258 257 255 258 258 244 232 228 226 216 210 208 202 203 205 203 210 212 203 205 210 222 226
306 305 300 294 290 287 285 283 279 274 263 260 260 258 251 248 252 252 257 249 263 260 260 248 256 240 231 227 219 210 202 199 196 198 201 204 211 202 198 195 205 207 222
301 298 293 289 290 293 289 286 287 285 287 276 266 256 251 251 251 261 255 248 258 259 252 239 248 232 224 221 214 201 194 193 189 192 193 194 196 195 196 195 195 208 228
299 298 296 295 295 291 289 289 288 288 284 284 279 272 265 258 255 252 241 252 248 245 241 235 236 221 218 213 199 192 195 194 186 187 195 194 190 198 202 202 210 216 229
301 299 295 295 288 289 293 292 286 291 289 285 281 273 261 247 242 233 239 238 234 230 225 230 219 204 207 197 193 191 191 176 174 191 195 189 201 205 208 207 214 223 232
297 298 297 293 294 294 290 292 296 293 288 284 290 288 280 235 214 219 222 225 220 213 220 213 192 183 194 185 183 177 170 169 179 178 175 186 190 195 206 206 213 223 181
299 298 293 291 290 290 289 294 297 290 294 295 304 334 104 162 186 205 215 216 210 211 204 184 175 184 178 179 177 169 171 173 177 170 180 184 184 188 194 196 190 164 183
296 291 291 297 300 299 296 297 291 290 293 316 324 140 132 150 171 182 194 199 206 198 184 180 184 179 174 169 166 169 171 172 172 178 180 180 181 191 187 167 157 171 179
Wind_Speed_850mb
50 41 27 32 37 38 37 24 33 58 69 70 46 49 17 17 12 13 16 50 57 56 62 54 46 55 59 50 47 55 50 35 44 42 43 38 37 52 50 38 32 39 36
49 45 49 37 30 38 41 43 39 36 54 53 40 67 69 58 29 13 12 19 26 38 49 57 47 58 60 61 56 61 64 58 47 49 32 28 31 37 45 41 25 40 32
51 57 62 57 37 29 34 39 51 48 39 47 47 50 64 65 62 74 74 54 44 44 43 44 26 29 42 52 56 61 65 65 49 52 40 13 20 9 25 30 25 25 33
34 27 54 49 34 21 21 29 40 53 45 35 32 59 73 71 71 71 68 61 47 51 50 45 40 30 36 40 54 66 73 58 59 60 52 47 41 12 7 21 19 22 38
22 23 23 22 24 19 25 26 31 38 40 40 40 32 53 69 73 66 57 66 54 65 51 64 49 44 56 45 41 52 58 50 50 55 51 50 42 43 45 32 26 31 33
27 31 30 33 22 27 30 29 22 30 33 41 44 42 48 42 61 73 60 69 83 74 92 81 66 53 65 70 54 37 54 47 50 68 72 59 53 40 33 32 26 38 37
25 24 26 33 30 36 33 28 30 32 23 25 33 42 43 53 51 52 65 77 82 77 85 77 85 81 83 58 47 42 46 69 73 71 66 62 56 47 32 26 34 34 23
24 32 33 36 33 25 28 29 30 28 36 38 33 36 38 43 48 56 55 62 83 79 87 63 75 82 88 99 80 79 78 64 88 96 71 73 63 52 41 36 35 35 21
21 23 19 9 21 32 34 33 30 36 32 43 41 43 46 45 44 45 53 59 63 66 71 68 71 78 80 96 95 68 104 101 87 89 70 77 63 38 36 48 42 30 24
26 25 29 35 32 35 42 37 41 41 42 40 36 46 43 46 52 48 53 57 70 74 67 72 72 60 59 67 68 91 90 84 75 78 78 75 58 43 56 49 36 24 29
31 27 34 37 43 34 44 46 44 45 42 40 37 39 47 49 54 57 55 60 64 68 73 75 73 73 61 62 70 80 86 84 80 82 79 61 48 48 53 40 39 33 30
38 36 35 37 37 37 50 43 39 42 43 39 44 46 40 38 51 59 61 63 61 63 67 74 79 89 75 55 73 82 83 80 80 86 71 56 47 50 48 42 40 37 34
28 31 32 36 41 45 46 42 43 44 48 46 45 46 46 46 50 60 63 69 65 65 61 68 79 87 92 82 74 77 79 80 82 79 67 55 54 51 55 49 38 40 39
40 42 39 41 39 42 44 45 45 43 34 48 55 47 45 49 53 51 47 57 67 76 75 65 75 76 72 85 85 80 79 83 83 74 64 59 58 56 53 53 49 37 39
49 42 30 33 31 40 45 53 53 52 54 54 37 54 50 49 53 57 73 67 65 75 83 79 68 72 70 78 75 83 83 82 75 73 66 58 50 56 51 46 40 42 38
37 46 41 44 40 47 55 53 56 44 43 56 59 54 55 55 57 60 65 78 78 68 80 78 76 76 78 75 72 85 87 71 78 75 67 50 56 52 45 41 37 37 38
41 46 46 51 47 50 42 46 49 56 63 66 67 63 64 64 59 64 72 76 87 85 76 84 87 76 77 74 80 87 84 76 76 75 66 57 54 53 47 45 44 40 36
35 43 48 50 52 57 60 71 79 72 71 70 68 68 69 68 76 82 73 79 86 88 80 82 88 75 82 81 78 86 82 74 70 73 61 61 57 49 49 47 44 43 40
63 61 60 62 70 74 83 82 80 86 88 86 86 88 87 80 70 74 82 82 86 99 101 84 84 79 85 83 83 81 83 72 69 61 61 58 46 38 37 31 26 31 37
69 70 73 78 84 83 72 77 84 94 94 91 93 92 94 94 92 90 91 96 100 106 104 104 86 78 88 83 85 83 86 73 62 62 58 49 49 37 31 36 28 29 33
78 83 88 86 84 81 83 91 90 91 93 85 77 75 78 82 90 105 105 102 95 98 92 97 85 81 86 84 86 93 78 75 68 61 50 49 44 28 28 43 33 37 32
81 84 91 90 83 87 90 93 94 97 92 96 99 114 118 123 123 116 112 115 103 95 90 89 84 79 84 85 92 88 79 71 65 60 55 54 46 39 34 42 43 31 27
86 96 88 85 83 85 88 95 101 94 95 119 139 143 145 144 132 114 109 93 87 91 92 84 80 77 89 89 83 76 71 52 56 55 49 28 41 46 36 32 33 27 21
81 81 83 85 83 75 79 80 78 91 104 116 143 155 116 123 130 115 95 92 79 92 90 81 83 85 91 92 84 80 68 68 58 50 41 38 40 35 34 31 27 18 22
70 68 68 76 83 90 91 82 76 81 102 104 102 22 28 79 105 101 93 82 82 91 87 89 94 94 92 96 93 85 83 76 61 51 50 47 37 36 33 27 21 29 28
72 80 88 82 80 67 74 74 68 70 70 64 6 27 55 60 70 64 69 78 69 75 87 99 95 84 104 107 90 84 78 67 54 55 54 42 38 36 31 26 23 25 28
Wind_Direction_850mb
246 204 205 213 205 201 202 209 204 214 213 227 251 247 246 276 237 283 266 234 237 244 254 258 250 239 243 251 252 257 266 249 250 257 270 276 274 269 270 276 275 261 274
233 208 191 203 212 222 221 218 223 218 223 227 244 243 251 255 245 265 310 269 251 262 261 255 257 261 250 248 252 253 256 274 252 248 264 277 279 272 276 277 273 244 261
240 224 190 196 191 222 227 226 226 230 224 227 230 257 246 248 254 256 257 254 268 280 262 254 272 265 259 252 255 255 256 251 268 256 246 250 246 291 264 265 264 234 245
240 258 184 176 190 202 266 247 233 232 237 241 248 223 244 256 254 262 262 269 267 261 264 268 277 275 292 292 264 255 257 255 247 257 259 256 252 274 279 247 263 260 239
213 160 180 202 215 227 245 272 263 238 241 244 245 243 231 238 248 257 258 260 250 241 250 271 269 273 283 289 295 267 260 259 258 262 263 255 256 245 255 263 259 258 254
198 198 212 201 209 239 245 240 264 275 258 251 256 255 248 249 244 248 250 246 252 266 259 254 262 281 279 283 283 291 248 257 251 270 252 252 241 248 246 254 268 266 271
211 211 198 188 217 219 218 241 265 275 263 272 259 258 260 257 259 251 254 248 249 262 269 256 257 261 271 273 281 273 267 258 247 257 249 247 248 256 259 259 257 263 294
242 222 212 208 219 227 229 231 234 256 263 274 264 255 254 257 259 259 258 249 236 250 255 254 252 251 251 261 268 273 272 267 249 259 255 243 240 240 251 243 240 265 270
234 247 215 232 258 258 245 238 237 244 258 259 270 280 284 278 267 262 252 244 247 251 249 245 245 244 249 248 253 266 257 264 244 255 255 239 244 239 231 240 254 231 265
223 239 241 235 243 262 266 244 240 241 251 247 251 270 272 279 283 277 268 263 257 258 257 249 245 244 257 261 251 250 263 258 251 242 246 242 235 226 239 245 220 235 237
232 248 249 245 252 267 262 251 243 238 237 245 258 265 273 278 269 277 277 274 272 267 258 254 250 245 239 246 252 257 257 249 243 241 241 239 231 225 236 235 220 232 232
240 250 262 269 275 270 265 258 256 248 251 253 267 266 267 277 276 273 274 271 271 269 266 259 251 247 241 235 241 246 245 239 236 240 239 227 228 223 229 225 220 227 230
249 264 271 276 264 260 262 263 258 253 248 249 248 252 265 271 276 268 271 269 265 263 261 267 260 255 245 237 241 244 242 238 234 242 225 221 226 225 223 220 214 221 225
267 264 262 266 265 264 266 268 267 266 268 258 264 254 260 270 262 262 264 267 268 269 271 251 260 256 245 246 242 246 244 237 237 237 222 219 222 221 225 219 215 222 227
269 274 274 277 266 266 268 271 264 265 266 268 252 261 263 266 280 270 263 262 270 267 269 254 257 250 248 239 234 236 239 235 230 222 220 220 220 222 226 223 218 222 225
282 267 262 264 271 264 262 262 261 267 268 260 259 260 270 267 262 264 262 260 258 268 265 264 249 253 244 236 228 233 234 236 219 214 218 208 213 217 222 218 219 225 226
284 301 300 310 307 299 293 300 300 284 274 263 257 258 259 256 257 264 266 267 262 257 264 263 248 251 240 236 224 229 229 218 213 211 212 204 211 211 213 220 220 225 233
312 311 306 302 294 287 290 287 287 281 273 264 258 257 254 257 260 269 265 263 259 261 253 261 255 245 237 235 228 224 219 215 211 212 210 204 208 212 221 221 222 229 234
317 313 307 302 295 288 285 281 279 278 271 260 257 257 256 253 254 259 261 258 258 257 255 258 258 244 232 228 226 216 210 208 202 203 205 203 210 212 203 205 210 222 226
306 305 300 294 290 287 285 283 279 274 263 260 260 258 251 248 252 252 257 249 263 260 260 248 256 240 231 227 219 210 202 199 196 198 201 204 211 202 198 195 205 207 222
301 298 293 289 290 293 289 286 287 285 287 276 266 256 251 251 251 261 255 248 258 259 252 239 248 232 224 221 214 201 194 193 189 192 193 194 196 195 196 195 195 208 228
299 298 296 295 295 291 289 289 288 288 284 284 279 272 265 258 255 252 241 252 248 245 241 235 236 221 218 213 199 192 195 194 186 187 195 194 190 198 202 202 210 216 229
301 299 295 295 288 289 293 292 286 291 289 285 281 273 261 247 242 233 239 238 234 230 225 230 219 204 207 197 193 191 191 176 174 191 195 189 201 205 208 207 214 223 232
297 298 297 293 294 294 290 292 296 293 288 284 290 288 280 235 214 219 222 225 220 213 220 213 192 183 194 185 183 177 170 169 179 178 175 186 190 195 206 206 213 223 181
299 298 293 291 290 290 289 294 297 290 294 295 304 334 104 162 186 205 215 216 210 211 204 184 175 184 178 179 177 169 171 173 177 170 180 184 184 188 194 196 190 164 183
296 291 291 297 300 299 296 297 291 290 293 316 324 140 132 150 171 182 194 199 206 198 184 180 184 179 174 169 166 169 171 172 172 178 180 180 181 191 187 167 157 171 179